World > North America > United States > Alabama
Hourly Weather in Bremen, AlabamaBremen, Alabama Hourly Weather

Bremen, AL Hourly Weather

Hourly Weather Bremen, AlabamaHourly Weather in Bremen, AL
Lat: 33.99N, Lon: 86.97W  ICAO: K3A1
Web Search

Did you know? You can add this page to Bookmarks by pressing the Ctrl key & d key at the same time. Mac users press command & d.

Feedback

Bremen Hourly Weather

36 Hour Weather Scroll   °F Click to change Bremen hourly weather to Imperial units.Click to change Bremen hourly weather to Metric units. °C
Currently, Partly Cloudy, temperature is 63°F17°C, dew point 59°F15°C, humidity 87%. Wind direction is N at 0 mph0 km/h with visibility of 10.00 mi16 km. Barometric pressure is 30.06 in1018 mb.

Sep 28
5:00 AM

Sep 28
6:00 AM

Sep 28
7:00 AM

Sep 28
8:00 AM

Sep 28
9:00 AM

Sep 28
10:00 AM

Sep 28
11:00 AM

Sep 28
NOON

Sep 28
1:00 PM

Sep 28
2:00 PM

Sep 28
3:00 PM

Sep 28
4:00 PM

Sep 28
5:00 PM

Sep 28
6:00 PM

Sep 28
7:00 PM

Sep 28
8:00 PM

Sep 28
9:00 PM

Sep 28
10:00 PM

Sep 28
11:00 PM

Sep 29
MIDNIGHT

Sep 29
1:00 AM

Sep 29
2:00 AM

Sep 29
3:00 AM

Sep 29
4:00 AM

Sep 29
5:00 AM

Sep 29
6:00 AM

Sep 29
7:00 AM

Sep 29
8:00 AM

Sep 29
9:00 AM

Sep 29
10:00 AM

Sep 29
11:00 AM

Sep 29
NOON

Sep 29
1:00 PM

Sep 29
2:00 PM

Sep 29
3:00 PM

Sep 29
4:00 PM
Clear Clear Clear Clear Clear Clear Clear Partly Cloudy Partly Cloudy Partly Cloudy Partly Cloudy Partly Cloudy Partly Cloudy Clear Clear Clear Clear Clear Clear Clear Clear Clear Clear Clear Clear Clear Clear Clear Mostly Cloudy Mostly Cloudy Mostly Cloudy Mostly Cloudy Mostly Cloudy Mostly Cloudy Mostly Cloudy Mostly Cloudy
Clear Clear Clear Clear Clear Clear Clear Partly Cloudy Partly Cloudy Partly Cloudy Partly Cloudy Partly Cloudy Partly Cloudy Clear Clear Clear Clear Clear Clear Clear Clear Clear Clear Clear Clear Clear Clear Clear Mostly Cloudy Mostly Cloudy Mostly Cloudy Mostly Cloudy Mostly Cloudy Mostly Cloudy Mostly Cloudy Mostly Cloudy
62°F17°C 61°F16°C 61°F16°C 65°F18°C 68°F20°C 72°F22°C 74°F23°C 77°F25°C 79°F26°C 80°F27°C 80°F27°C 81°F27°C 78°F26°C 76°F24°C 73°F23°C 71°F22°C 69°F21°C 67°F19°C 67°F19°C 66°F19°C 66°F19°C 66°F19°C 65°F18°C 65°F18°C 65°F18°C 65°F18°C 65°F18°C 68°F20°C 72°F22°C 75°F24°C 77°F25°C 79°F26°C 81°F27°C 82°F28°C 82°F28°C 83°F28°C
- - - - - - - - - - - - - - - - - - - - - - - - - - - - - - - - - - - -
0% 0% 0% 1% 1% 1% 1% 1% 1% 1% 1% 1% 1% 1% 1% 2% 2% 2% 2% 2% 2% 0% 0% 0% 0% 0% 0% 2% 2% 2% 2% 2% 2% 15% 15% 15%
59°F15°C 59°F15°C 59°F15°C 61°F16°C 62°F17°C 64°F18°C 64°F18°C 64°F18°C 64°F18°C 64°F18°C 65°F18°C 65°F18°C 66°F19°C 67°F19°C 68°F20°C 67°F19°C 67°F19°C 66°F19°C 66°F19°C 65°F18°C 65°F18°C 64°F18°C 64°F18°C 63°F17°C 63°F17°C 64°F18°C 64°F18°C 65°F18°C 67°F19°C 68°F20°C 67°F19°C 67°F19°C 66°F19°C 66°F19°C 66°F19°C 66°F19°C
90% 93% 93% 87% 81% 76% 71% 64% 60% 58% 60% 58% 67% 74% 84% 87% 93% 97% 97% 97% 97% 93% 97% 93% 93% 97% 97% 90% 84% 79% 71% 67% 60% 59% 59% 57%
N N N ENE SE S SSE SSE SW SW SW SW SSE ENE N N N N N N N N N N ENE ESE S S SSE SSE SSE SSE SSE S S S
0 mph 0 mph 0 mph 0 mph 3 mph 3 mph 3 mph 3 mph 3 mph 3 mph 1 mph 1 mph 1 mph 0 mph 0 mph 0 mph 0 mph 0 mph 0 mph 0 mph 0 mph 0 mph 0 mph 0 mph 0 mph 1 mph 1 mph 1 mph 1 mph 1 mph 1 mph 2 mph 2 mph 2 mph 1 mph 1 mph
6 mi10 km 6 mi10 km 5 mi8 km 6 mi10 km 6 mi10 km 10 mi16 km 10 mi16 km 10 mi16 km 10 mi16 km 10 mi16 km 10 mi16 km 10 mi16 km 10 mi16 km 10 mi16 km 10 mi16 km 10 mi16 km 10 mi16 km 10 mi16 km 5 mi8 km 3 mi5 km .5 mi1 km .5 mi1 km .5 mi1 km .5 mi1 km .5 mi1 km .5 mi1 km .5 mi1 km 3 mi5 km 5 mi8 km 10 mi16 km 10 mi16 km 10 mi16 km 10 mi16 km 10 mi16 km 10 mi16 km 10 mi16 km
Hour (CDT)
Weather
Clouds
Temperature
Precip. Type
POP
Dewpoint
Humidity
Wind Direction
Wind Speed
Visibility
POP = Probability of Precipitation. ** Indicates missing data/values from model statistics.

24 Hour Forecast

Morning - Mostly clear. Patchy fog. Light and variable winds.
Today - Patchy fog in the morning. Sunny. Highs in the lower 80s. Light and variable winds.

48 Hour Forecast API Feed


Tue, Sep 28
5:00 am

Tue, Sep 28
6:00 am

Tue, Sep 28
7:00 am

Tue, Sep 28
8:00 am

Tue, Sep 28
9:00 am

Tue, Sep 28
10:00 am

Tue, Sep 28
11:00 am

Tue, Sep 28
Noon

Tue, Sep 28
1:00 pm

Tue, Sep 28
2:00 pm

Tue, Sep 28
3:00 pm

Tue, Sep 28
4:00 pm

Tue, Sep 28
5:00 pm

Tue, Sep 28
6:00 pm

Tue, Sep 28
7:00 pm

Tue, Sep 28
8:00 pm

Tue, Sep 28
9:00 pm

Tue, Sep 28
10:00 pm

Tue, Sep 28
11:00 pm

Wed, Sep 29
Midnight

Wed, Sep 29
1:00 am

Wed, Sep 29
2:00 am

Wed, Sep 29
3:00 am

Wed, Sep 29
4:00 am

Wed, Sep 29
5:00 am

Wed, Sep 29
6:00 am

Wed, Sep 29
7:00 am

Wed, Sep 29
8:00 am

Wed, Sep 29
9:00 am

Wed, Sep 29
10:00 am

Wed, Sep 29
11:00 am

Wed, Sep 29
Noon

Wed, Sep 29
1:00 pm

Wed, Sep 29
2:00 pm

Wed, Sep 29
3:00 pm

Wed, Sep 29
4:00 pm

Wed, Sep 29
5:00 pm

Wed, Sep 29
6:00 pm

Wed, Sep 29
7:00 pm

Wed, Sep 29
8:00 pm

Wed, Sep 29
9:00 pm

Wed, Sep 29
10:00 pm

Wed, Sep 29
11:00 pm

Thu, Sep 30
Midnight

Thu, Sep 30
1:00 am

Thu, Sep 30
2:00 am

Thu, Sep 30
3:00 am

Thu, Sep 30
4:00 am
Partly CloudyPartly CloudyPartly CloudyPartly CloudyPartly CloudyPartly CloudyPartly CloudyPartly CloudyPartly CloudyPartly CloudyCloudyCloudyCloudyPartly CloudyPartly CloudyPartly CloudyPartly CloudyPartly CloudyPartly CloudyPartly CloudyPartly CloudyPartly CloudyPartly CloudyPartly CloudyPartly CloudyPartly CloudyPartly CloudyPartly CloudyPartly CloudyPartly CloudyPartly CloudyPartly CloudyCloudyPatchy Rain PossibleCloudyPatchy Rain PossiblePartly CloudyPatchy Rain PossiblePartly CloudyPartly CloudyPartly CloudyPartly CloudyPartly CloudyPartly CloudyPartly CloudyPartly CloudyPartly CloudyCloudy
Partly cloudy Partly cloudy Partly cloudy Partly cloudy Partly cloudy Partly cloudy Partly cloudy Partly cloudy Partly cloudy Partly cloudy Cloudy Cloudy Cloudy Partly cloudy Partly cloudy Partly cloudy Partly cloudy Partly cloudy Partly cloudy Partly cloudy Partly cloudy Partly cloudy Partly cloudy Partly cloudy Partly cloudy Partly cloudy Partly cloudy Partly cloudy Partly cloudy Partly cloudy Partly cloudy Partly cloudy Cloudy Patchy rain possible Cloudy Patchy rain possible Partly cloudy Patchy rain possible Partly cloudy Partly cloudy Partly cloudy Partly cloudy Partly cloudy Partly cloudy Partly cloudy Partly cloudy Partly cloudy Cloudy
60°F
15°C
59°F
15°C
60°F
15°C
65°F
18°C
71°F
22°C
76°F
24°C
83°F
29°C
86°F
30°C
88°F
31°C
86°F
30°C
86°F
30°C
85°F
29°C
83°F
29°C
77°F
25°C
73°F
23°C
71°F
21°C
69°F
21°C
68°F
20°C
67°F
20°C
67°F
19°C
66°F
19°C
66°F
19°C
65°F
19°C
65°F
18°C
64°F
18°C
64°F
18°C
64°F
18°C
70°F
21°C
75°F
24°C
79°F
26°C
83°F
28°C
86°F
30°C
87°F
30°C
88°F
31°C
85°F
30°C
81°F
27°C
77°F
25°C
75°F
24°C
74°F
23°C
73°F
23°C
72°F
22°C
70°F
21°C
69°F
21°C
69°F
21°C
68°F
20°C
68°F
20°C
67°F
20°C
67°F
20°C
55°F
13°C
55°F
13°C
56°F
13°C
58°F
15°C
60°F
15°C
61°F
16°C
65°F
19°C
66°F
19°C
67°F
19°C
64°F
18°C
63°F
17°C
63°F
17°C
65°F
19°C
66°F
19°C
64°F
18°C
63°F
17°C
63°F
17°C
63°F
17°C
63°F
17°C
62°F
17°C
62°F
17°C
62°F
17°C
62°F
17°C
62°F
17°C
62°F
17°C
62°F
17°C
62°F
17°C
64°F
18°C
65°F
18°C
65°F
19°C
66°F
19°C
67°F
19°C
66°F
19°C
66°F
19°C
66°F
19°C
69°F
21°C
68°F
20°C
68°F
20°C
67°F
20°C
67°F
19°C
66°F
19°C
66°F
19°C
65°F
19°C
65°F
19°C
65°F
18°C
65°F
18°C
65°F
18°C
65°F
18°C
30.03 in
1017 mb
30.03 in
1017 mb
30.06 in
1018 mb
30.06 in
1018 mb
30.06 in
1018 mb
30.06 in
1018 mb
30.06 in
1018 mb
30.03 in
1017 mb
30 in
1016 mb
29.97 in
1015 mb
29.97 in
1015 mb
29.94 in
1014 mb
29.94 in
1014 mb
29.94 in
1014 mb
29.94 in
1014 mb
29.97 in
1015 mb
29.97 in
1015 mb
30 in
1016 mb
29.97 in
1015 mb
29.97 in
1015 mb
29.97 in
1015 mb
29.97 in
1015 mb
29.97 in
1015 mb
29.97 in
1015 mb
30 in
1016 mb
30 in
1016 mb
30.03 in
1017 mb
30.03 in
1017 mb
30.03 in
1017 mb
30.06 in
1018 mb
30.03 in
1017 mb
30.03 in
1017 mb
30 in
1016 mb
29.97 in
1015 mb
29.97 in
1015 mb
29.97 in
1015 mb
29.97 in
1015 mb
29.97 in
1015 mb
30 in
1016 mb
30 in
1016 mb
30 in
1016 mb
30 in
1016 mb
30 in
1016 mb
30 in
1016 mb
30.03 in
1017 mb
30.03 in
1017 mb
30.03 in
1017 mb
30.03 in
1017 mb
86%87%87%78%68%60%55%51%49%47%46%48%55%68%73%77%81%83%85%86%87%88%88%90%91%92%91%81%71%63%57%53%51%49%53%68%74%78%81%82%84%87%88%88%89%90%91%92%
SSWSSESSSSSWSSWSSESWWSWWSWWSWSWSWSSSEESESESSESEESEENEENEEEESEESEESESSESSSSESEESEESEESEEESESEESEESEESESSESSEEEE
2 mph
3 km/h
1 mph
2 km/h
2 mph
3 km/h
1 mph
2 km/h
2 mph
3 km/h
1 mph
2 km/h
1 mph
1 km/h
0 mph
1 km/h
0 mph
1 km/h
2 mph
4 km/h
3 mph
4 km/h
3 mph
5 km/h
2 mph
4 km/h
2 mph
3 km/h
1 mph
2 km/h
1 mph
2 km/h
1 mph
2 km/h
1 mph
1 km/h
1 mph
1 km/h
1 mph
1 km/h
1 mph
1 km/h
1 mph
2 km/h
3 mph
4 km/h
2 mph
3 km/h
2 mph
3 km/h
2 mph
3 km/h
2 mph
3 km/h
2 mph
3 km/h
2 mph
4 km/h
3 mph
5 km/h
3 mph
5 km/h
2 mph
4 km/h
3 mph
5 km/h
2 mph
4 km/h
2 mph
3 km/h
2 mph
3 km/h
2 mph
3 km/h
3 mph
5 km/h
2 mph
3 km/h
2 mph
3 km/h
2 mph
3 km/h
2 mph
3 km/h
2 mph
3 km/h
1 mph
1 km/h
1 mph
1 km/h
1 mph
2 km/h
2 mph
3 km/h
1 mph
2 km/h
0%0%0%0%0%0%0%0%0%0%0%0%0%0%0%0%0%0%0%0%0%0%0%0%0%0%0%0%0%0%0%0%0%70%0%85%0%78%0%0%0%0%0%0%0%0%0%0%
6 mi
10 km
6 mi
10 km
6 mi
10 km
6 mi
10 km
6 mi
10 km
6 mi
10 km
6 mi
10 km
6 mi
10 km
6 mi
10 km
6 mi
10 km
6 mi
10 km
6 mi
10 km
6 mi
10 km
6 mi
10 km
6 mi
10 km
6 mi
10 km
6 mi
10 km
6 mi
10 km
6 mi
10 km
6 mi
10 km
6 mi
10 km
6 mi
10 km
6 mi
10 km
6 mi
10 km
6 mi
10 km
6 mi
10 km
6 mi
10 km
6 mi
10 km
6 mi
10 km
6 mi
10 km
6 mi
10 km
6 mi
10 km
6 mi
10 km
6 mi
10 km
6 mi
10 km
6 mi
9 km
6 mi
10 km
6 mi
10 km
6 mi
10 km
6 mi
10 km
6 mi
10 km
6 mi
10 km
6 mi
10 km
6 mi
10 km
6 mi
10 km
6 mi
10 km
6 mi
10 km
6 mi
10 km

Day/Time
Weather
Condition
Temperature
Dew Point
Pressure
Humidity
Wind Direction
Wind Speed
Prob Precip %
Visibility
Prob Precip % = Probability of Precipitation.